When you browse on this site, cookies collect data to enhance your experience and personalize the content and advertising you see.
Visit our Privacy Policy to learn more. By continuing to use the site, you agree to this use of cookies and data.
  • In Romania
  • List of Countries
  • For 7 days
  • Water Temperature
  • Satellite Maps
  • Weather Map
  • Weather Widgets
  • user-avatar
    Login

    Hourly Weather Borovec

    Today, 24 May, Friday

    Time Temperature Precipitation Wind Pressure Humidity
    00:00 +12°C° 0 mm 1 mps 707 mmHg 92%
    01:00 +12°C° 0 mm 1 mps 707 mmHg 93%
    02:00 +12°C° 0 mm 1 mps 707 mmHg 94%
    03:00 +12°C° 0 mm 1 mps 707 mmHg 94%
    04:00 +11°C° 0 mm 1 mps 707 mmHg 94%
    05:00 +11°C° 0 mm 1 mps 707 mmHg 94%
    06:00 +12°C° 0 mm 2 mps 707 mmHg 90%
    07:00 +13°C° 0 mm 2 mps 707 mmHg 87%
    08:00 +14°C° 0 mm 2 mps 707 mmHg 83%
    09:00 +14°C° 0 mm 2 mps 707 mmHg 78%
    10:00 +15°C° 0 mm 2 mps 708 mmHg 74%
    11:00 +16°C° 0 mm 3 mps 708 mmHg 69%
    12:00 +17°C° 0.1 mm 3 mps 708 mmHg 66%
    13:00 +18°C° 0.1 mm 3 mps 707 mmHg 63%
    14:00 +18°C° 0.1 mm 3 mps 707 mmHg 60%
    15:00 +18°C° 0 mm 3 mps 707 mmHg 59%
    16:00 +18°C° 0 mm 3 mps 707 mmHg 59%
    17:00 +19°C° 0 mm 3 mps 706 mmHg 58%
    18:00 +17°C° 0 mm 3 mps 706 mmHg 65%
    19:00 +15°C° 0 mm 2 mps 706 mmHg 72%
    20:00 +13°C° 0 mm 2 mps 706 mmHg 79%
    21:00 +13°C° 0 mm 2 mps 706 mmHg 83%
    22:00 +12°C° 0 mm 2 mps 707 mmHg 86%
    23:00 +11°C° 0 mm 1 mps 707 mmHg 89%

    Tomorrow, 25 May, Saturday

    Time Temperature Precipitation Wind Pressure Humidity
    00:00 +11°C° 0 mm 1 mps 707 mmHg 90%
    01:00 +10°C° 0 mm 1 mps 707 mmHg 90%
    02:00 +10°C° 0 mm 1 mps 707 mmHg 91%
    03:00 +10°C° 0 mm 1 mps 707 mmHg 91%
    04:00 +10°C° 0 mm 1 mps 707 mmHg 91%
    05:00 +9°C° 0 mm 1 mps 707 mmHg 91%
    06:00 +10°C° 0 mm 2 mps 708 mmHg 85%
    07:00 +13°C° 0 mm 2 mps 708 mmHg 79%
    08:00 +14°C° 0 mm 3 mps 708 mmHg 72%
    09:00 +17°C° 0 mm 3 mps 709 mmHg 66%
    10:00 +18°C° 0 mm 3 mps 709 mmHg 60%
    11:00 +20°C° 0 mm 3 mps 709 mmHg 54%
    12:00 +21°C° 0 mm 3 mps 709 mmHg 52%
    13:00 +21°C° 0 mm 4 mps 709 mmHg 49%
    14:00 +22°C° 0 mm 4 mps 709 mmHg 47%
    15:00 +22°C° 0 mm 4 mps 709 mmHg 48%
    16:00 +22°C° 0 mm 3 mps 709 mmHg 49%
    17:00 +22°C° 0 mm 3 mps 708 mmHg 50%
    18:00 +20°C° 0 mm 3 mps 708 mmHg 59%
    19:00 +18°C° 0 mm 2 mps 708 mmHg 67%
    20:00 +16°C° 0 mm 1 mps 708 mmHg 75%
    21:00 +15°C° 0 mm 1 mps 709 mmHg 78%
    22:00 +14°C° 0 mm 1 mps 709 mmHg 82%
    23:00 +13°C° 0 mm 1 mps 709 mmHg 85%

    Day after tomorrow, 26 May, Sunday

    Time Temperature Precipitation Wind Pressure Humidity
    00:00 +13°C° 0 mm 1 mps 709 mmHg 85%
    01:00 +12°C° 0 mm 1 mps 709 mmHg 86%
    02:00 +12°C° 0 mm 1 mps 709 mmHg 87%
    03:00 +12°C° 0 mm 1 mps 709 mmHg 86%
    04:00 +11°C° 0 mm 1 mps 709 mmHg 85%
    05:00 +11°C° 0 mm 1 mps 709 mmHg 85%
    06:00 +13°C° 0 mm 1 mps 710 mmHg 77%
    07:00 +16°C° 0 mm 1 mps 710 mmHg 70%
    08:00 +19°C° 0 mm 1 mps 710 mmHg 62%
    09:00 +21°C° 0 mm 1 mps 711 mmHg 55%
    10:00 +24°C° 0 mm 1 mps 711 mmHg 47%
    11:00 +26°C° 0 mm 1 mps 711 mmHg 40%
    12:00 +27°C° 0 mm 1 mps 711 mmHg 38%
    13:00 +28°C° 0 mm 1 mps 711 mmHg 36%
    14:00 +28°C° 0 mm 1 mps 711 mmHg 33%
    15:00 +28°C° 0 mm 1 mps 711 mmHg 35%
    16:00 +28°C° 0 mm 1 mps 710 mmHg 37%
    17:00 +27°C° 0 mm 1 mps 710 mmHg 38%
    18:00 +25°C° 0 mm 1 mps 710 mmHg 47%
    19:00 +22°C° 0 mm 1 mps 710 mmHg 55%
    20:00 +20°C° 0 mm 1 mps 710 mmHg 63%
    21:00 +19°C° 0 mm 1 mps 710 mmHg 67%
    22:00 +18°C° 0 mm 1 mps 710 mmHg 70%
    23:00 +16°C° 0 mm 1 mps 710 mmHg 74%

    27 May, Monday

    Time Temperature Precipitation Wind Pressure Humidity
    00:00 +16°C° 0 mm 1 mps 710 mmHg 76%
    01:00 +15°C° 0 mm 1 mps 710 mmHg 79%
    02:00 +15°C° 0 mm 1 mps 710 mmHg 81%
    03:00 +15°C° 0 mm 1 mps 710 mmHg 82%
    04:00 +14°C° 0 mm 1 mps 710 mmHg 83%
    05:00 +14°C° 0 mm 1 mps 710 mmHg 84%
    06:00 +16°C° 0 mm 1 mps 710 mmHg 77%
    07:00 +20°C° 0 mm 1 mps 710 mmHg 71%
    08:00 +22°C° 0 mm 1 mps 710 mmHg 64%
    09:00 +23°C° 0 mm 2 mps 710 mmHg 59%
    10:00 +25°C° 0 mm 2 mps 710 mmHg 53%
    11:00 +27°C° 0 mm 2 mps 710 mmHg 48%
    12:00 +28°C° 0 mm 3 mps 710 mmHg 46%
    13:00 +28°C° 0 mm 3 mps 710 mmHg 44%
    14:00 +29°C° 0 mm 3 mps 710 mmHg 42%
    15:00 +28°C° 0 mm 3 mps 710 mmHg 47%
    16:00 +27°C° 0 mm 3 mps 709 mmHg 52%
    17:00 +26°C° 0 mm 3 mps 709 mmHg 58%
    18:00 +24°C° 0 mm 2 mps 709 mmHg 63%
    19:00 +22°C° 0 mm 1 mps 709 mmHg 68%
    20:00 +21°C° 0 mm 1 mps 708 mmHg 74%
    21:00 +20°C° 0 mm 1 mps 708 mmHg 77%
    22:00 +19°C° 0 mm 1 mps 708 mmHg 80%
    23:00 +18°C° 0 mm 1 mps 708 mmHg 82%

    28 May, Tuesday

    Time Temperature Precipitation Wind Pressure Humidity
    00:00 +16°C° 0 mm 1 mps 708 mmHg 82%
    01:00 +16°C° 0 mm 1 mps 707 mmHg 81%
    02:00 +15°C° 0 mm 1 mps 707 mmHg 81%
    03:00 +15°C° 0 mm 1 mps 707 mmHg 78%
    04:00 +14°C° 0 mm 1 mps 707 mmHg 76%
    05:00 +14°C° 0 mm 1 mps 706 mmHg 73%
    06:00 +16°C° 0 mm 1 mps 707 mmHg 65%
    07:00 +19°C° 0 mm 1 mps 707 mmHg 58%
    08:00 +20°C° 0 mm 2 mps 707 mmHg 50%
    09:00 +23°C° 0 mm 2 mps 707 mmHg 44%
    10:00 +25°C° 0 mm 3 mps 707 mmHg 38%
    11:00 +28°C° 0 mm 3 mps 707 mmHg 33%
    12:00 +28°C° 0 mm 3 mps 707 mmHg 32%
    13:00 +28°C° 0 mm 4 mps 706 mmHg 32%
    14:00 +29°C° 0 mm 4 mps 706 mmHg 32%
    15:00 +28°C° 0 mm 4 mps 706 mmHg 34%
    16:00 +28°C° 0 mm 4 mps 706 mmHg 37%
    17:00 +27°C° 0 mm 5 mps 705 mmHg 39%
    18:00 +25°C° 0 mm 4 mps 705 mmHg 46%
    19:00 +22°C° 0 mm 3 mps 705 mmHg 52%
    20:00 +20°C° 0 mm 3 mps 705 mmHg 58%
    21:00 +19°C° 0 mm 3 mps 706 mmHg 61%
    22:00 +18°C° 0 mm 2 mps 706 mmHg 65%
    23:00 +17°C° 0 mm 2 mps 706 mmHg 68%

    29 May, Wednesday

    Time Temperature Precipitation Wind Pressure Humidity
    00:00 +16°C° 0 mm 2 mps 706 mmHg 71%
    01:00 +15°C° 0 mm 1 mps 706 mmHg 75%
    02:00 +15°C° 0 mm 1 mps 707 mmHg 79%
    03:00 +14°C° 0 mm 1 mps 707 mmHg 81%
    04:00 +14°C° 0 mm 1 mps 707 mmHg 83%
    05:00 +13°C° 0 mm 1 mps 707 mmHg 85%
    06:00 +16°C° 0 mm 1 mps 708 mmHg 78%
    07:00 +19°C° 0 mm 1 mps 708 mmHg 71%
    08:00 +21°C° 0 mm 1 mps 709 mmHg 64%
    09:00 +21°C° 0 mm 2 mps 709 mmHg 57%
    10:00 +24°C° 0 mm 2 mps 709 mmHg 51%
    11:00 +26°C° 0 mm 2 mps 710 mmHg 44%
    12:00 +27°C° 0 mm 2 mps 710 mmHg 42%
    13:00 +27°C° 0 mm 2 mps 710 mmHg 40%
    14:00 +28°C° 0 mm 2 mps 710 mmHg 38%
    15:00 +28°C° 0 mm 2 mps 710 mmHg 41%
    16:00 +27°C° 0 mm 2 mps 709 mmHg 44%
    17:00 +27°C° 0 mm 2 mps 709 mmHg 46%
    18:00 +25°C° 0 mm 2 mps 709 mmHg 54%
    19:00 +23°C° 0 mm 1 mps 710 mmHg 62%
    20:00 +21°C° 0 mm 1 mps 710 mmHg 69%
    21:00 +20°C° 0 mm 1 mps 710 mmHg 73%
    22:00 +19°C° 0 mm 1 mps 710 mmHg 77%
    23:00 +18°C° 0 mm 1 mps 711 mmHg 81%
    Show more